View from above orbital plane
|
View from above satellite
|
Ground track
|
The orbit data is extracted from the following two-line orbital elements,
1 23608U 95033D 21055.91454515 .00000913 00000-0 83629-4 0 9991
2 23608 98.3075 89.4105 0017886 123.3225 236.9711 14.97581277389222
Epoch (UTC): | 24 February 2021 21:56:56 |
Eccentricity: | 0.0017886 |
inclination: | 98.3075° |
perigee height: | 562 km |
apogee height: | 587 km |
right ascension of ascending node: | 89.4105° |
argument of perigee: | 123.3225° |
revolutions per day: | 14.97581277 |
mean anomaly at epoch: | 236.9711° |
orbit number at epoch: | 38922 |
The dashed part of the orbit path shows where the satellite is in the earth's shadow,
|
|